Home   Weather   King's Lynn   Past weeks

Flag for United Kingdom Past Weather in King's Lynn, England, United Kingdom — Yesterday and Last 2 Weeks

Now
39 °F

Overcast.


Feels Like: 32 °F
Forecast: N/A
Wind: 10 mph from East

Location: Marham

Current Time: Jan 21, 2017 at 3:34:56 pm

Latest Report: Jan 21, 2017 at 2:50 pm


Visibility: N/A

Pressure: 30.30 "Hg

Humidity: 87%

Dew Point: 36 °F

Location of King's LynnLocation

Past Weather in King's Lynn — Graph

°F

King's Lynn Temperature Yesterday

Maximum temperature yesterday: 45 °F (at 1:50 pm)
Minimum temperature yesterday: 27 °F (at 12:50 am)
Average temperature yesterday: 35 °F

High & Low Weather Summary for the Past Weeks

 TemperatureHumidityPressure
High50 °F (Jan 11, 5:50 am)100% (Jan 6, 8:50 pm)30.69 "Hg (Jan 6, 8:50 pm)
Low27 °F (Jan 20, 12:50 am)57% (Jan 11, 1:50 pm)29.33 "Hg (Jan 12, 6:50 pm)
Average39 °F87%30.20 "Hg
* Reported Jan 6 1:50 pm — Jan 21 1:50 pm, King's Lynn, Weather by CustomWeather, © 2017

Note: Actual official high and low records may vary slightly from our data, if they occured in-between our weather recording intervals... More about our weather records

Advertising

King's Lynn Weather History for the Previous 24 Hours

Scroll right to see more
 ConditionsComfort  
Time TempWeatherWind HumidityBarometerVisibility
1:50 pm
Sat, Jan 21
41 °FOvercast.8 mph81%30.33 "HgN/A
12:50 pm41 °FOvercast.9 mph81%30.36 "HgN/A
11:50 am41 °FOvercast.7 mph81%30.39 "HgN/A
10:50 am39 °FOvercast.8 mph87%30.39 "HgN/A
9:50 am39 °FPartly sunny.8 mph87%30.42 "HgN/A
8:50 am36 °FHaze.8 mph93%30.42 "Hg6 mi
7:50 am34 °FFog.7 mph93%30.42 "Hg4 mi
6:50 am36 °FHaze.9 mph93%30.42 "Hg4 mi
5:50 am37 °FChilly.9 mph87%30.42 "HgN/A
4:50 am37 °FChilly.12 mph87%30.42 "HgN/A
3:50 am36 °FHaze.9 mph93%30.45 "Hg5 mi
2:50 am36 °FFog.8 mph93%30.45 "Hg5 mi
1:50 am36 °FPassing clouds.8 mph93%30.48 "HgN/A
12:50 am36 °FPassing clouds.9 mph93%30.48 "HgN/A
11:50 pm
Fri, Jan 20
37 °FPassing clouds.9 mph81%30.48 "HgN/A
10:50 pm37 °FPassing clouds.12 mph81%30.48 "HgN/A
9:50 pm37 °FPassing clouds.10 mph75%30.51 "HgN/A
8:50 pm37 °FPassing clouds.9 mph75%30.51 "HgN/A
7:50 pm37 °FOvercast.9 mph75%30.51 "HgN/A
6:50 pm37 °FPassing clouds.9 mph75%30.51 "HgN/A
5:50 pm36 °FPassing clouds.5 mph81%30.51 "HgN/A
4:50 pm37 °FChilly.3 mph70%30.51 "HgN/A
3:50 pm41 °FSunny.6 mph66%30.51 "Hg10 mi
Weather by CustomWeather, © 2017

See weather overviewHow to use our weather pages